DW2229 Weather Reports


Display with metric or nautical units.
time (UTC)temp
F
wind
direction
speed
MPH
gust
MPH
rain 1hr
in
rain 24hr
in
rain mn
in
humidity
%
barometer
mb
20190423234329 71 155 2.0 7.0 0.00 0.01 0.01 76 1018.6
20190423233347 71 157 1.0 6.0 0.00 0.01 0.01 75 1018.6
20190423232343 71 161 1.0 5.0 0.00 0.01 0.01 74 1018.6
20190423231339 71 164 1.0 6.0 0.00 0.01 0.01 74 1018.7
20190423230336 72 159 3.0 7.0 0.00 0.01 0.01 74 1018.5
20190423225330 72 152 4.0 7.0 0.00 0.01 0.01 74 1018.5
20190423224344 72 141 4.0 8.0 0.00 0.01 0.01 73 1018.5
20190423223339 72 142 2.0 8.0 0.00 0.01 0.01 73 1018.5
20190423222339 72 144 3.0 8.0 0.00 0.01 0.01 71 1018.6
20190423221333 73 155 3.0 7.0 0.00 0.01 0.01 71 1018.7
20190423220349 73 157 2.0 7.0 0.00 0.01 0.01 69 1018.9
20190423215343 74 155 2.0 7.0 0.00 0.01 0.01 68 1019.1
20190423214339 74 164 1.0 7.0 0.00 0.01 0.01 68 1019.3
20190423213336 74 143 2.0 5.0 0.00 0.01 0.01 68 1019.3
20190423212330 73 161 1.0 5.0 0.00 0.01 0.01 68 1019.3
20190423211344 73 163 4.0 7.0 0.00 0.01 0.01 68 1019.2
20190423210337 73 159 3.0 6.0 0.00 0.01 0.01 68 1019.4
20190423205335 73 156 3.0 7.0 0.00 0.01 0.01 67 1019.4
20190423204330 73 140 1.0 7.0 0.00 0.01 0.01 66 1019.5
20190423203345 73 158 2.0 7.0 0.00 0.01 0.01 64 1019.5
20190423202338 74 155 4.0 7.0 0.00 0.01 0.01 62 1019.6
20190423201332 74 180 1.0 7.0 0.00 0.01 0.01 62 1019.9
20190423200330 74 176 3.0 6.0 0.00 0.01 0.01 61 1020.1
20190423195346 75 169 4.0 8.0 0.00 0.01 0.01 61 1020.2
20190423194339 75 179 2.0 7.0 0.00 0.01 0.01 58 1020.3
20190423193334 76 172 3.0 8.0 0.00 0.01 0.01 57 1020.4
20190423192332 75 161 3.0 10.0 0.00 0.01 0.01 62 1020.4
20190423191348 75 174 4.0 8.0 0.00 0.01 0.01 62 1020.4
20190423190345 75 173 4.0 8.0 0.00 0.01 0.01 60 1020.5
20190423185340 75 188 4.0 9.0 0.00 0.01 0.01 60 1020.5
20190423184334 76 170 3.0 7.0 0.00 0.01 0.01 62 1020.5
20190423183333 76 184 2.0 8.0 0.00 0.01 0.01 62 1020.6
20190423182347 76 197 4.0 7.0 0.00 0.01 0.01 61 1020.6
20190423181340 75 167 5.0 7.0 0.00 0.01 0.01 61 1020.7
20190423180336 75 157 4.0 8.0 0.00 0.01 0.01 61 1020.6
20190423175331 75 174 4.0 7.0 0.00 0.01 0.01 61 1020.8
20190423174348 75 167 4.0 9.0 0.00 0.01 0.01 64 1020.9
20190423173344 74 167 6.0 9.0 0.00 0.01 0.01 64 1020.9
20190423172339 74 161 4.0 8.0 0.00 0.01 0.01 64 1020.9
20190423171334 74 160 5.0 9.0 0.00 0.01 0.01 66 1021.0
20190423170334 74 175 5.0 9.0 0.00 0.01 0.01 66 1020.9
20190423165329 75 171 6.0 9.0 0.00 0.01 0.01 65 1021.1
20190423163341 75 167 5.0 9.0 0.00 0.01 0.01 67 1021.4
20190423162337 75 164 5.0 9.0 0.00 0.01 0.01 68 1021.5
20190423161334 75 144 5.0 10.0 0.00 0.01 0.01 64 1021.5
20190423160348 74 167 6.0 10.0 0.00 0.01 0.01 66 1021.4
20190423155341 74 167 5.0 10.0 0.00 0.01 0.01 67 1021.4
20190423154333 74 165 4.0 9.0 0.00 0.01 0.01 69 1021.2
20190423153347 74 168 5.0 7.0 0.00 0.01 0.01 69 1021.3
20190423152344 74 161 5.0 8.0 0.00 0.01 0.01 69 1021.3
20190423151338 75 160 3.0 8.0 0.00 0.01 0.01 68 1021.1
20190423150334 75 132 4.0 8.0 0.00 0.01 0.01 65 1021.0
20190423145330 74 44 0.0 2.0 0.00 0.01 0.01 61 1021.0
20190423144330 73 46 0.0 3.0 0.00 0.01 0.01 65 1021.0
20190423143347 72 46 1.0 3.0 0.00 0.01 0.01 67 1020.8
20190423142342 71 42 1.0 4.0 0.00 0.01 0.01 71 1020.8
20190423141337 70 64 1.0 5.0 0.00 0.01 0.01 74 1020.9
20190423140334 69 60 2.0 5.0 0.00 0.01 0.01 78 1020.6
20190423135333 69 50 1.0 5.0 0.00 0.01 0.01 82 1020.6
20190423134346 68 34 2.0 6.0 0.00 0.01 0.01 83 1020.8
20190423133342 67 27 4.0 8.0 0.00 0.01 0.01 85 1020.9
20190423132337 66 30 3.0 8.0 0.00 0.01 0.01 86 1020.8
20190423131331 65 35 2.0 5.0 0.00 0.01 0.01 87 1020.9
20190423130331 64 32 0.0 5.0 0.00 0.01 0.01 89 1021.0
20190423125346 64 32 1.0 6.0 0.00 0.01 0.01 90 1021.0
20190423124341 63 34 1.0 5.0 0.00 0.01 0.01 91 1020.9
20190423123335 63 29 1.0 5.0 0.00 0.01 0.01 91 1020.8
20190423122333 62 28 2.0 5.0 0.00 0.01 0.01 92 1020.8
20190423121328 62 22 0.0 4.0 0.00 0.01 0.01 92 1020.9
20190423120343 61 5 0.0 3.0 0.00 0.01 0.01 93 1020.8
20190423114343 60 5 0.0 4.0 0.01 0.01 0.01 94 1020.5
20190423113358 60 355 0.0 3.0 0.01 0.01 0.01 94 1020.6
20190423112329 60 355 0.0 3.0 0.01 0.01 0.01 94 1020.5
20190423111344 60 355 0.0 3.0 0.01 0.01 0.01 94 1020.5
20190423110339 60 355 0.0 4.0 0.01 0.01 0.01 94 1020.4
20190423105336 60 344 0.0 3.0 0.01 0.01 0.01 94 1020.4
20190423104330 60 343 2.0 4.0 0.00 0.00 0.00 94 1020.3
20190423103331 61 286 0.0 1.0 0.00 0.00 0.00 93 1020.2
20190423102345 61 286 0.0 0.0 0.00 0.00 0.00 93 1020.0
20190423101339 61 286 0.0 0.0 0.00 0.00 0.00 93 1019.5
20190423100337 61 286 0.0 0.0 0.00 0.00 0.00 93 1019.4
20190423095332 62 286 0.0 0.0 0.00 0.00 0.00 92 1019.3
20190423094329 62 254 0.0 0.0 0.00 0.00 0.00 93 1019.4
20190423093345 62 254 0.0 0.0 0.00 0.00 0.00 93 1019.2
20190423092341 62 254 0.0 0.0 0.00 0.00 0.00 94 1019.0
20190423091336 61 254 0.0 0.0 0.00 0.00 0.00 93 1019.0
20190423090338 61 254 0.0 0.0 0.00 0.00 0.00 93 1019.0
20190423085334 61 254 0.0 0.0 0.00 0.00 0.00 92 1019.0
20190423084329 62 254 0.0 0.0 0.00 0.00 0.00 93 1019.0
20190423083345 62 254 0.0 0.0 0.00 0.00 0.00 93 1019.1
20190423082340 62 254 0.0 0.0 0.00 0.00 0.00 92 1019.1
20190423081340 62 254 0.0 0.0 0.00 0.00 0.00 92 1019.0
20190423080336 62 254 0.0 0.0 0.00 0.00 0.00 92 1019.1
20190423075334 62 254 0.0 0.0 0.00 0.00 0.00 92 1019.1
20190423074348 63 254 0.0 0.0 0.00 0.00 0.00 92 1019.2
20190423073329 63 254 0.0 2.0 0.00 0.00 0.00 91 1019.3
20190423072344 64 254 0.0 0.0 0.00 0.00 0.00 92 1019.7
20190423071337 64 254 0.0 0.0 0.00 0.00 0.00 92 1019.8
20190423070333 64 254 0.0 0.0 0.00 0.00 0.00 92 1019.8
20190423065348 64 254 0.0 0.0 0.00 0.00 0.00 91 1019.9
20190423064345 64 254 0.0 0.0 0.00 0.00 0.00 91 1020.0
20190423063420 64 254 0.0 1.0 0.00 0.00 0.00 91 1020.1
20190423062341 64 254 0.0 1.0 0.00 0.00 0.00 91 1020.0
20190423061334 64 254 0.0 0.0 0.00 0.00 0.00 92 1020.2
20190423060330 65 254 0.0 0.0 0.00 0.00 0.00 91 1020.4
20190423055329 65 254 0.0 0.0 0.00 0.00 0.00 90 1020.5
20190423054344 65 254 0.0 0.0 0.00 0.00 0.00 90 1020.7
20190423053340 65 254 0.0 1.0 0.00 0.00 0.00 90 1020.7
20190423052336 65 254 0.0 0.0 0.00 0.00 0.00 90 1020.8
20190423051330 65 254 0.0 1.0 0.00 0.00 0.00 90 1020.9
20190423050331 66 254 0.0 0.0 0.00 0.00 0.00 89 1021.1
20190423045347 66 254 0.0 0.0 0.00 0.00 0.00 88 1021.1
20190423044341 66 254 0.0 0.0 0.00 0.00 0.00 88 1021.1
20190423043338 67 254 0.0 0.0 0.00 0.00 0.00 86 1021.0
20190423042336 67 254 0.0 0.0 0.00 0.00 0.00 86 1021.1
20190423041334 67 254 0.0 0.0 0.00 0.00 0.00 85 1021.1
20190423040329 67 254 0.0 0.0 0.00 0.00 0.00 85 1021.2
20190423035344 67 254 0.0 0.0 0.00 0.00 0.00 84 1021.2
20190423034337 67 254 0.0 0.0 0.00 0.00 0.00 83 1021.1
20190423033340 67 254 0.0 0.0 0.00 0.00 0.00 81 1021.1
20190423032336 67 254 0.0 0.0 0.00 0.00 0.00 81 1021.2
20190423031330 67 254 0.0 1.0 0.00 0.00 0.00 82 1021.1
20190423030347 67 254 0.0 2.0 0.00 0.00 0.00 81 1021.1
20190423025342 68 254 0.0 2.0 0.00 0.00 0.00 80 1021.1
20190423024339 68 254 0.0 3.0 0.00 0.00 0.00 80 1021.1
20190423023335 68 253 0.0 3.0 0.00 0.00 0.00 79 1021.1
20190423022331 68 253 0.0 4.0 0.00 0.00 0.00 76 1021.1
20190423021345 69 228 0.0 4.0 0.00 0.00 0.00 75 1021.1
20190423020341 69 225 0.0 1.0 0.00 0.00 0.00 75 1021.1
20190423015340 69 218 1.0 4.0 0.00 0.00 0.00 75 1021.0
20190423014335 69 276 0.0 2.0 0.00 0.00 0.00 74 1020.9
20190423013331 69 225 0.0 4.0 0.00 0.00 0.00 73 1020.9
20190423012348 69 223 0.0 2.0 0.00 0.00 0.00 73 1020.9
20190423011344 69 221 0.0 2.0 0.00 0.00 0.00 71 1020.7
20190423010341 69 238 1.0 3.0 0.00 0.00 0.00 69 1020.8
20190423005337 70 252 0.0 4.0 0.00 0.00 0.00 68 1020.8
20190423004330 70 243 0.0 4.0 0.00 0.00 0.00 66 1020.9
20190423003346 70 211 0.0 4.0 0.00 0.00 0.00 63 1020.8
20190423002347 71 211 0.0 4.0 0.00 0.00 0.00 64 1020.6
20190423001341 71 252 0.0 5.0 0.00 0.00 0.00 61 1020.7
20190423000337 72 223 0.0 3.0 0.00 0.00 0.00 60 1020.7
20190422235334 72 208 0.0 6.0 0.00 0.00 0.00 60 1020.8